[[{"header":{"parameterUnit":"m.s-1","parameterCategory":1,"la1":30.2991,"la2":30.254,"lo1":-89.0895,"lo2":-89.0444,"dy":0.0017,"dx":0.0017,"nx":28,"ny":28,"refTime":"2023-10-22T21:00:00:Z","depth":0,"parameterNumber":2,"parameterNumberName":"U-component_of_WINDS"},"data":[0,0,0,0,0,0,0,0,0,0,0,0,0,0,0,0,0,0,0,0,0,0,0,0,0,0,0,0,0,0,0,0,0,0,0,0,0,0,0,0,0,0,0,0,0,0,0,0,0,0,0,0,0,0,0,0,0,0,-5.0714,-5.0715,0,-5.079,-5.0791,-5.0791,-5.0685,-5.0681,-5.0677,-5.0674,-5.0755,-5.0761,-5.0766,0,0,0,0,0,0,0,0,0,0,0,0,0,-5.0481,-5.0486,-5.0714,-5.0715,-5.0716,-5.079,-5.0791,-5.0792,-5.0686,-5.0681,-5.0676,-5.0672,-5.0753,-5.076,-5.0767,0,0,0,0,0,0,0,0,0,0,0,0,0,-5.0572,-5.0487,-5.0714,-5.0672,-5.0669,-5.0789,-5.0791,-5.0792,-5.0686,-5.0681,-5.0675,-5.067,-5.0751,-5.0759,-5.0768,-5.0934,0,0,-5.0794,-5.0797,0,0,0,0,0,0,0,0,-5.0567,-5.0581,-5.0677,-5.0675,-5.0672,-5.0722,-5.0738,-5.084,-5.0688,-5.068,-5.0674,-5.0667,-5.0749,-5.0757,-5.0784,-5.0938,-5.0942,-5.0795,-5.08,-5.0803,-5.0806,0,0,0,0,0,0,0,-5.0561,-5.0577,-5.0744,-5.0679,-5.0675,-5.065,-5.0657,-5.0757,-5.0746,-5.068,-5.0673,-5.0683,-5.0746,-5.0776,-5.0785,-5.0943,-5.0794,-5.0802,-5.0807,-5.081,-5.1238,-5.1244,0,0,0,0,0,0,-5.0559,-5.0572,-5.0742,-5.0746,-5.0604,-5.0659,-5.0666,-5.0712,-5.0744,-5.0743,-5.0688,-5.0678,-5.0764,-5.0775,-5.0788,-5.0985,-5.0803,-5.0811,-5.0816,-5.1231,-5.1239,-5.1246,0,0,0,0,0,0,-5.0554,-5.0575,-5.0739,-5.0657,-5.0676,-5.0669,-5.0721,-5.0716,-5.0746,-5.075,-5.0747,-5.072,-5.076,-5.0776,-5.0898,-5.0986,-5.0815,-5.0823,-5.1224,-5.1234,-5.1242,-5.1381,0,0,0,0,0,0,-5.0548,-5.0574,-5.0637,-5.0659,-5.0681,-5.0848,-5.0726,-5.0722,-5.076,-5.0748,-5.0779,-5.0779,-5.0757,-5.0886,-5.0907,-5.0995,-5.083,-5.1216,-5.1228,-5.1239,-5.1368,-5.1394,-5.1415,0,0,0,0,0,-5.054,-5.0673,-5.064,-5.0661,-5.0759,-5.0853,-5.0865,-5.0836,-5.0768,-5.0831,-5.0834,-5.0778,-5.0973,-5.09,-5.0922,-5.1014,-5.1211,-5.1225,-5.1239,-5.1358,-5.1389,-5.1415,0,0,0,0,0,0,-5.0662,-5.0676,-5.0639,-5.0783,-5.0818,-5.0834,-5.0913,-5.0869,-5.0925,-5.0911,-5.0873,-5.0881,-5.1013,-5.1025,-5.0943,-5.1177,-5.1081,-5.11,-5.1164,-5.1193,-5.1216,-5.121,-5.0837,0,0,0,0,0,-5.0706,-5.078,-5.0788,-5.0915,-5.0934,-5.0921,-5.0961,-5.0935,-5.097,-5.0984,-5.0995,-5.1032,-5.1101,-5.1148,-5.1212,-5.137,-5.1375,-5.1444,-5.1467,-5.1487,-5.1504,-5.1588,-5.1619,-5.1292,-5.1292,-5.1291,0,0,-5.0797,-5.0813,-5.0863,-5.094,-5.0963,-5.1042,-5.0934,-5.1022,-5.108,-5.0998,-5.1114,-5.1124,-5.1162,-5.1303,-5.1366,-5.1318,-5.1595,-5.1504,-5.152,-5.1526,-5.1606,-5.1637,-5.1664,-5.1301,-5.1299,-5.1298,0,0,-5.1003,-5.1023,-5.113,-5.1156,-5.1192,-5.1183,-5.1209,-5.1233,-5.1236,-5.1351,-5.1291,-5.1361,-5.1481,-5.1511,-5.1542,-5.1759,-5.171,-5.1781,-5.1904,-5.1987,-5.2013,-5.2035,-5.2113,-5.2141,-5.1798,-5.1799,-5.1799,0,-5.1112,-5.1227,-5.1191,-5.1283,-5.1319,-5.1247,-5.1356,-5.1383,-5.144,-5.1466,-5.1411,-5.1561,-5.1582,-5.1728,-5.1781,-5.1809,-5.1838,-5.1777,-5.2011,-5.2034,-5.2055,-5.2128,-5.2158,-5.1807,-5.1806,-5.1805,-5.1804,0,-5.1359,-5.1439,-5.1522,-5.1577,-5.1622,-5.1722,-5.1703,-5.1753,-5.1724,-5.1721,-5.184,-5.1863,-5.193,-5.1963,-5.1936,-5.2107,-5.2076,-5.2017,-5.192,-5.2095,-5.2163,-5.2191,-5.1819,-5.1816,-5.1813,-5.1811,0,0,-5.1644,-5.1677,-5.1708,-5.1732,-5.1767,-5.1829,-5.1927,-5.1991,-5.2035,-5.2077,-5.2158,-5.2261,-5.2207,-5.2242,-5.2218,-5.2291,-5.2462,-5.2223,-5.2223,-5.2267,-5.2652,-5.2695,-5.2728,-5.243,-5.2435,-5.2439,-5.2648,0,-5.1849,-5.2015,-5.1987,-5.2149,-5.2223,-5.2156,-5.2241,-5.2272,-5.2272,-5.2336,-5.2336,-5.241,-5.2333,-5.2354,-5.2423,-5.2426,-5.2539,-5.2411,-5.2505,-5.2509,-5.2497,-5.2764,-5.281,-5.3006,-5.2675,-5.2679,-5.2683,0,-5.211,-5.216,-5.2329,-5.2352,-5.2383,-5.2459,-5.2516,-5.2578,-5.2613,-5.2607,-5.2647,-5.2609,-5.2707,-5.2609,-5.2744,-5.2657,-5.2695,-5.2702,-5.2709,-5.2717,-5.2606,-5.2779,-5.3068,-5.3098,-5.2724,-5.2721,-5.2718,0,-5.2301,-5.241,-5.2525,-5.2548,-5.2578,-5.2634,-5.2649,-5.2678,-5.2719,-5.2769,-5.2795,-5.2857,-5.2891,-5.294,-5.292,-5.285,-5.306,-5.2959,-5.3059,-5.3059,-5.3105,-5.3103,-5.3405,-5.3131,-5.313,-5.3129,-5.3129,0,-5.2532,-5.2639,-5.2611,-5.2682,-5.28,-5.2766,-5.2884,-5.2891,-5.2918,-5.299,-5.2936,-5.3005,-5.2975,-5.3042,-5.3028,-5.3142,-5.3158,-5.3157,-5.3152,-5.3162,-5.3162,-5.3185,-5.3171,-5.3137,-5.3136,-5.3134,-5.3133,0,-5.2765,-5.275,-5.2872,-5.289,-5.2897,-5.2983,-5.2999,-5.3066,-5.3062,-5.3154,-5.3173,-5.3167,-5.3244,-5.3229,-5.3314,-5.3304,-5.3447,-5.3425,-5.3435,-5.343,-5.353,-5.3521,-5.3858,-5.39,-5.3599,-5.3602,-5.3604,0,-5.2913,-5.2993,-5.302,-5.3063,-5.3083,-5.3154,-5.3195,-5.3166,-5.3211,-5.3256,-5.3318,-5.339,-5.3445,-5.3571,-5.3575,-5.364,-5.3619,-5.3733,-5.3628,-5.3636,-5.362,-5.3615,-5.3623,-5.3753,-5.3757,-5.3759,-5.3762,0,-5.3178,-5.3167,-5.3227,-5.3286,-5.3336,-5.3381,-5.3421,-5.346,-5.3435,-5.3488,-5.3565,-5.3608,-5.3694,-5.3766,-5.3827,-5.3843,-5.38,-5.3795,-5.3821,-5.3831,-5.3833,-5.3833,-5.3491,-5.3787,-5.3784,-5.3783,-5.3781,-5.378,-5.3372,-5.344,-5.3469,-5.3539,-5.3565,-5.3604,-5.3668,-5.3671,-5.3734,-5.3801,-5.3781,-5.3869,-5.3902,-5.3978,-5.4002,-5.4071,-5.4028,-5.4067,-5.4076,-5.4086,-5.4098,-5.3823,-5.4082,-5.4081,-5.408,-5.408,-5.4079,0,-5.3634,-5.3649,-5.3713,-5.377,-5.3825,-5.3778,-5.382,-5.3869,-5.3946,-5.398,-5.4036,-5.4125,-5.4194,-5.4204,-5.427,-5.4324,-5.4305,-5.4342,-5.4337,-5.4342,-5.4132,-5.4103,-5.4356,-5.4356,-5.4356,-5.4356,-5.4356,-5.4356,-5.3776,-5.3888,-5.3881,-5.4006,-5.4021,-5.4106,-5.4134,-5.417,-5.4196,-5.4298,-5.4355,-5.436,-5.4385,-5.4452,-5.4515,-5.4516,-5.4542,-5.4587,-5.4581,-5.4385,-5.4357,-5.4331,-5.4302,-5.4594,-5.4594,-5.4784,-5.4786,-5.4788]},{"header":{"parameterUnit":"m.s-1","parameterCategory":1,"la1":30.2991,"la2":30.254,"lo1":-89.0895,"lo2":-89.0444,"dy":0.0017,"dx":0.0017,"nx":28,"ny":28,"refTime":"2023-10-22T21:00:00:Z","depth":0,"parameterNumber":3,"parameterNumberName":"V-component_of_WINDS"},"data":[0,0,0,0,0,0,0,0,0,0,0,0,0,0,0,0,0,0,0,0,0,0,0,0,0,0,0,0,0,0,0,0,0,0,0,0,0,0,0,0,0,0,0,0,0,0,0,0,0,0,0,0,0,0,0,0,0,0,1.3055,1.3057,0,1.3191,1.3193,1.3194,1.3213,1.3211,1.321,1.3209,1.3353,1.3358,1.3363,0,0,0,0,0,0,0,0,0,0,0,0,0,1.2818,1.2822,1.3055,1.3057,1.3058,1.3191,1.3193,1.3195,1.3213,1.3211,1.321,1.3208,1.3351,1.3357,1.3363,0,0,0,0,0,0,0,0,0,0,0,0,0,1.2934,1.2823,1.3055,1.3083,1.3087,1.3191,1.3193,1.3195,1.3213,1.3211,1.3209,1.3208,1.3349,1.3357,1.3364,1.345,0,0,1.3387,1.3391,0,0,0,0,0,0,0,0,1.2927,1.2943,1.3078,1.3082,1.3086,1.3183,1.3162,1.3281,1.3214,1.3166,1.3209,1.3207,1.3298,1.331,1.334,1.3456,1.3463,1.3388,1.3393,1.3396,1.3398,0,0,0,0,0,0,0,1.2919,1.2937,1.3109,1.3079,1.3085,1.3092,1.3106,1.3185,1.3241,1.317,1.3171,1.3187,1.33,1.3332,1.3343,1.3465,1.3388,1.3394,1.3399,1.3402,1.3663,1.3666,0,0,0,0,0,0,1.2905,1.293,1.3105,1.3113,1.3,1.3097,1.3114,1.3154,1.324,1.3252,1.3188,1.3187,1.3321,1.3334,1.3348,1.3458,1.3396,1.3403,1.3407,1.3661,1.3664,1.3666,0,0,0,0,0,0,1.29,1.2921,1.3099,1.3022,1.3045,1.3104,1.3149,1.3158,1.319,1.3255,1.3265,1.3211,1.332,1.3338,1.3425,1.3463,1.3406,1.3413,1.3658,1.3662,1.3665,1.3676,0,0,0,0,0,0,1.2893,1.2919,1.295,1.3023,1.3049,1.3172,1.3151,1.3162,1.3202,1.3202,1.3278,1.3289,1.3319,1.3414,1.3433,1.3473,1.3419,1.3655,1.366,1.3664,1.3672,1.3679,1.3685,0,0,0,0,0,1.2885,1.2948,1.2952,1.2973,1.309,1.3174,1.3189,1.3222,1.3205,1.3239,1.3281,1.3287,1.3455,1.3422,1.3444,1.3487,1.3653,1.3658,1.3664,1.367,1.3678,1.3685,0,0,0,0,0,0,1.288,1.2958,1.2963,1.3051,1.3105,1.3177,1.322,1.3229,1.3291,1.3288,1.3327,1.3344,1.3431,1.3467,1.3429,1.3577,1.3553,1.3563,1.355,1.3559,1.3565,1.3556,1.3425,0,0,0,0,0,1.2888,1.2948,1.3014,1.3086,1.3112,1.3161,1.3199,1.3219,1.3278,1.3302,1.335,1.3408,1.3475,1.3518,1.3583,1.3677,1.3696,1.3717,1.3723,1.3728,1.3738,1.3795,1.3806,1.3684,1.3684,1.3684,0,0,1.2908,1.2958,1.2994,1.3086,1.313,1.3195,1.3181,1.3248,1.3297,1.3313,1.3399,1.3436,1.3504,1.3596,1.3639,1.3629,1.3775,1.3735,1.3739,1.3746,1.3802,1.3813,1.3823,1.3688,1.3687,1.3687,0,0,1.2977,1.3019,1.3086,1.313,1.3198,1.323,1.3246,1.3316,1.3342,1.3428,1.3443,1.3502,1.3614,1.3664,1.3703,1.3793,1.3802,1.3812,1.3848,1.3903,1.3912,1.3921,1.3958,1.397,1.3821,1.3821,1.3821,0,1.2994,1.3089,1.3119,1.3187,1.3229,1.3244,1.3314,1.3356,1.3442,1.3472,1.3458,1.3602,1.3649,1.3755,1.3777,1.3807,1.3829,1.3806,1.3908,1.3917,1.3926,1.3961,1.3974,1.3822,1.3822,1.3822,1.3822,0,1.3108,1.3174,1.322,1.3302,1.3348,1.3416,1.3459,1.3503,1.3519,1.3554,1.3644,1.37,1.3778,1.3804,1.382,1.3914,1.3906,1.39,1.3878,1.3938,1.3973,1.3986,1.3824,1.3823,1.3823,1.3823,0,0,1.318,1.3278,1.3295,1.3333,1.3409,1.3462,1.3532,1.3607,1.3646,1.3704,1.3767,1.3863,1.3859,1.3904,1.3926,1.3973,1.4046,1.3962,1.3964,1.398,1.4158,1.4165,1.418,1.4051,1.4054,1.4056,1.4154,0,1.3262,1.3386,1.3415,1.3523,1.3586,1.3602,1.3664,1.3719,1.3753,1.3814,1.3852,1.3921,1.3908,1.3936,1.3983,1.4027,1.4083,1.402,1.4114,1.4117,1.4101,1.4197,1.4205,1.4294,1.4167,1.4169,1.4171,0,1.3374,1.3435,1.3548,1.3618,1.3646,1.3701,1.3774,1.383,1.3894,1.3916,1.3967,1.3985,1.4062,1.4032,1.4141,1.4098,1.4138,1.4165,1.417,1.4183,1.415,1.4218,1.4323,1.4338,1.4191,1.4189,1.4188,0,1.3421,1.353,1.3614,1.3646,1.3728,1.3767,1.3804,1.3865,1.391,1.3974,1.4004,1.4076,1.4117,1.4174,1.4212,1.4186,1.4319,1.4292,1.4344,1.4343,1.4374,1.4373,1.4492,1.4392,1.4392,1.4392,1.4391,0,1.3511,1.3582,1.3636,1.3688,1.3768,1.3802,1.3881,1.3918,1.3973,1.4035,1.4052,1.411,1.4154,1.4219,1.4249,1.4338,1.4355,1.4378,1.4386,1.4379,1.4377,1.4409,1.4405,1.4395,1.4394,1.4394,1.4393,0,1.3579,1.3618,1.371,1.3781,1.38,1.3857,1.3919,1.3971,1.4005,1.4083,1.4104,1.4159,1.4236,1.4279,1.4376,1.4396,1.4497,1.4499,1.4475,1.448,1.453,1.4527,1.4678,1.4702,1.4582,1.4583,1.4584,0,1.3637,1.3691,1.3767,1.3809,1.3846,1.3913,1.3958,1.3994,1.4041,1.4119,1.4163,1.424,1.4305,1.4429,1.4479,1.4555,1.4562,1.461,1.4574,1.4567,1.4569,1.4567,1.4575,1.4618,1.4619,1.462,1.4621,0,1.3736,1.3753,1.3816,1.3888,1.3941,1.3999,1.4057,1.4091,1.4137,1.4189,1.4268,1.4318,1.4417,1.4497,1.4576,1.4617,1.4629,1.4631,1.4648,1.4644,1.463,1.4643,1.4498,1.4628,1.4628,1.4627,1.4627,1.4626,1.3804,1.3855,1.3917,1.3988,1.4035,1.4089,1.4143,1.4184,1.4249,1.4333,1.4349,1.4434,1.4499,1.4607,1.465,1.4719,1.471,1.4733,1.474,1.4746,1.4751,1.4615,1.4733,1.4733,1.4733,1.4732,1.4732,0,1.3909,1.395,1.4015,1.4095,1.4152,1.4154,1.4219,1.4267,1.4341,1.4399,1.4463,1.4556,1.4633,1.4689,1.4768,1.4813,1.4821,1.4833,1.4833,1.4843,1.4752,1.4732,1.4826,1.4826,1.4826,1.4826,1.4826,1.4826,1.3971,1.4058,1.4082,1.4194,1.4234,1.4316,1.4354,1.4405,1.4452,1.4554,1.4618,1.4653,1.4713,1.4797,1.4869,1.4884,1.4915,1.4927,1.4944,1.4858,1.4849,1.4839,1.4821,1.4932,1.4933,1.503,1.5031,1.5031]}]]